[[{"header":{"parameterUnit":"m.s-1","parameterCategory":1,"la1":30.2991,"la2":30.254,"lo1":-89.0895,"lo2":-89.0444,"dy":0.0017,"dx":0.0017,"nx":28,"ny":28,"refTime":"2025-12-25T09:00:00:Z","depth":0,"parameterNumber":2,"parameterNumberName":"U-component_of_WINDS"},"data":[0,0,0,0,0,0,0,0,0,0,0,0,0,0,0,0,0,0,0,0,0,0,0,0,0,0,0,0,0,0,0,0,0,0,0,0,0,0,0,0,0,0,0,0,0,0,0,0,0,0,0,0,0,0,0,0,0,0,0.1111,0.1111,0,0.1125,0.1126,0.1126,0.1128,0.1128,0.1127,0.1127,0.1143,0.1143,0.1144,0,0,0,0,0,0,0,0,0,0,0,0,0,0.1087,0.1087,0.1111,0.1111,0.1112,0.1125,0.1126,0.1126,0.1128,0.1128,0.1127,0.1127,0.1143,0.1143,0.1144,0,0,0,0,0,0,0,0,0,0,0,0,0,0.1099,0.1087,0.1111,0.1114,0.1115,0.1125,0.1126,0.1126,0.1128,0.1128,0.1127,0.1127,0.1142,0.1143,0.1144,0.1153,0,0,0.1146,0.1147,0,0,0,0,0,0,0,0,0.1098,0.11,0.1114,0.1114,0.1115,0.1125,0.1123,0.1135,0.1128,0.1123,0.1127,0.1127,0.1137,0.1138,0.1141,0.1154,0.1154,0.1146,0.1147,0.1147,0.1148,0,0,0,0,0,0,0,0.1097,0.1099,0.1117,0.1114,0.1114,0.1115,0.1117,0.1125,0.1131,0.1123,0.1123,0.1125,0.1137,0.114,0.1142,0.1154,0.1146,0.1147,0.1148,0.1148,0.1174,0.1175,0,0,0,0,0,0,0.1096,0.1098,0.1116,0.1117,0.1106,0.1116,0.1117,0.1122,0.1131,0.1132,0.1125,0.1125,0.1139,0.1141,0.1142,0.1153,0.1147,0.1148,0.1149,0.1174,0.1174,0.1175,0,0,0,0,0,0,0.1095,0.1097,0.1116,0.1108,0.111,0.1116,0.1121,0.1122,0.1125,0.1132,0.1133,0.1127,0.1139,0.1141,0.115,0.1153,0.1148,0.1149,0.1174,0.1174,0.1174,0.1174,0,0,0,0,0,0,0.1095,0.1097,0.11,0.1108,0.1111,0.1123,0.1121,0.1122,0.1127,0.1127,0.1135,0.1136,0.1139,0.1149,0.1151,0.1154,0.115,0.1174,0.1174,0.1174,0.1174,0.1175,0.1175,0,0,0,0,0,0.1094,0.11,0.1101,0.1103,0.1115,0.1123,0.1125,0.1128,0.1127,0.113,0.1135,0.1136,0.1153,0.115,0.1152,0.1156,0.1173,0.1174,0.1174,0.1174,0.1175,0.1175,0,0,0,0,0,0,0.1094,0.1101,0.1102,0.1111,0.1116,0.1124,0.1128,0.1129,0.1135,0.1135,0.1139,0.1141,0.115,0.1154,0.115,0.1165,0.1163,0.1164,0.1162,0.1163,0.1163,0.1162,0.115,0,0,0,0,0,0.1094,0.11,0.1107,0.1114,0.1117,0.1122,0.1126,0.1128,0.1134,0.1137,0.1142,0.1148,0.1154,0.1159,0.1165,0.1175,0.1176,0.1179,0.1179,0.1179,0.118,0.1185,0.1186,0.1176,0.1176,0.1176,0,0,0.1097,0.1102,0.1105,0.1115,0.1119,0.1125,0.1124,0.1131,0.1136,0.1138,0.1146,0.115,0.1157,0.1166,0.117,0.117,0.1183,0.118,0.118,0.1181,0.1186,0.1187,0.1188,0.1177,0.1176,0.1176,0,0,0.1104,0.1108,0.1115,0.1119,0.1126,0.1129,0.113,0.1137,0.114,0.1148,0.115,0.1156,0.1167,0.1172,0.1176,0.1184,0.1185,0.1186,0.1189,0.1194,0.1195,0.1195,0.1198,0.1199,0.1187,0.1187,0.1187,0,0.1106,0.1115,0.1118,0.1124,0.1128,0.113,0.1137,0.1141,0.1149,0.1152,0.1151,0.1165,0.117,0.118,0.1182,0.1185,0.1187,0.1186,0.1194,0.1195,0.1196,0.1198,0.1199,0.1187,0.1187,0.1187,0.1187,0,0.1117,0.1123,0.1127,0.1135,0.114,0.1146,0.115,0.1155,0.1156,0.116,0.1168,0.1174,0.1181,0.1184,0.1186,0.1194,0.1194,0.1193,0.1192,0.1197,0.1199,0.12,0.1187,0.1187,0.1187,0.1187,0,0,0.1124,0.1133,0.1135,0.1138,0.1145,0.115,0.1157,0.1164,0.1167,0.1173,0.1179,0.1188,0.1188,0.1192,0.1195,0.1199,0.1205,0.1198,0.1198,0.1199,0.1214,0.1214,0.1215,0.1205,0.1206,0.1206,0.1213,0,0.1132,0.1143,0.1146,0.1156,0.1161,0.1163,0.1169,0.1174,0.1177,0.1182,0.1186,0.1193,0.1192,0.1195,0.1199,0.1203,0.1208,0.1203,0.1211,0.1211,0.1209,0.1216,0.1216,0.1223,0.1214,0.1214,0.1215,0,0.1142,0.1148,0.1158,0.1164,0.1166,0.1171,0.1178,0.1183,0.1189,0.1191,0.1196,0.1198,0.1204,0.1202,0.1212,0.1208,0.1212,0.1214,0.1215,0.1215,0.1213,0.1217,0.1225,0.1226,0.1216,0.1216,0.1216,0,0.1146,0.1156,0.1163,0.1166,0.1174,0.1177,0.118,0.1186,0.119,0.1196,0.1198,0.1205,0.1208,0.1213,0.1217,0.1215,0.1226,0.1225,0.1228,0.1228,0.123,0.123,0.1239,0.1233,0.1233,0.1233,0.1233,0,0.1154,0.1161,0.1165,0.117,0.1177,0.118,0.1186,0.119,0.1195,0.12,0.1202,0.1207,0.1211,0.1217,0.122,0.1227,0.1229,0.1231,0.1231,0.123,0.123,0.1233,0.1232,0.1233,0.1233,0.1233,0.1233,0,0.116,0.1164,0.1171,0.1178,0.1179,0.1184,0.1189,0.1194,0.1197,0.1203,0.1205,0.121,0.1217,0.1221,0.1229,0.1231,0.1239,0.124,0.1237,0.1237,0.1241,0.124,0.1251,0.1253,0.1246,0.1246,0.1246,0,0.1165,0.1169,0.1176,0.1179,0.1182,0.1188,0.1192,0.1195,0.1199,0.1206,0.1209,0.1216,0.1221,0.1232,0.1236,0.1243,0.1243,0.1247,0.1244,0.1243,0.1243,0.1243,0.1243,0.1247,0.1247,0.1247,0.1247,0,0.1173,0.1174,0.118,0.1185,0.119,0.1194,0.1199,0.1202,0.1206,0.1211,0.1217,0.1221,0.1229,0.1236,0.1243,0.1246,0.1248,0.1248,0.1249,0.1248,0.1246,0.1247,0.1238,0.1248,0.1248,0.1248,0.1248,0.1248,0.1178,0.1182,0.1187,0.1193,0.1197,0.1201,0.1205,0.1209,0.1214,0.1221,0.1223,0.1229,0.1235,0.1244,0.1247,0.1253,0.1252,0.1254,0.1255,0.1255,0.1255,0.1245,0.1254,0.1254,0.1254,0.1254,0.1254,0,0.1186,0.1189,0.1194,0.1201,0.1205,0.1206,0.1211,0.1215,0.122,0.1225,0.123,0.1238,0.1244,0.1249,0.1255,0.1258,0.1259,0.126,0.126,0.126,0.1255,0.1253,0.1259,0.1259,0.1259,0.1259,0.1259,0.1259,0.1191,0.1197,0.1199,0.1208,0.1211,0.1217,0.122,0.1224,0.1228,0.1236,0.1241,0.1244,0.1249,0.1255,0.1261,0.1262,0.1264,0.1265,0.1267,0.1261,0.1261,0.126,0.1259,0.1266,0.1266,0.1271,0.1271,0.1272]},{"header":{"parameterUnit":"m.s-1","parameterCategory":1,"la1":30.2991,"la2":30.254,"lo1":-89.0895,"lo2":-89.0444,"dy":0.0017,"dx":0.0017,"nx":28,"ny":28,"refTime":"2025-12-25T09:00:00:Z","depth":0,"parameterNumber":3,"parameterNumberName":"V-component_of_WINDS"},"data":[0,0,0,0,0,0,0,0,0,0,0,0,0,0,0,0,0,0,0,0,0,0,0,0,0,0,0,0,0,0,0,0,0,0,0,0,0,0,0,0,0,0,0,0,0,0,0,0,0,0,0,0,0,0,0,0,0,0,0.2146,0.2145,0,0.2055,0.2054,0.2053,0.2027,0.2028,0.2028,0.2029,0.1932,0.1929,0.1926,0,0,0,0,0,0,0,0,0,0,0,0,0,0.2294,0.2291,0.2146,0.2145,0.2144,0.2055,0.2054,0.2053,0.2027,0.2028,0.2028,0.2029,0.1933,0.1929,0.1925,0,0,0,0,0,0,0,0,0,0,0,0,0,0.2219,0.229,0.2146,0.2121,0.2117,0.2055,0.2054,0.2052,0.2027,0.2028,0.2029,0.2029,0.1934,0.1929,0.1925,0.1881,0,0,0.1911,0.1909,0,0,0,0,0,0,0,0,0.2223,0.2213,0.2126,0.2122,0.2119,0.2053,0.207,0.1995,0.2027,0.2061,0.2029,0.203,0.1971,0.1964,0.1945,0.1876,0.1872,0.191,0.1908,0.1906,0.1904,0,0,0,0,0,0,0,0.2228,0.2217,0.211,0.2124,0.212,0.2112,0.2102,0.2056,0.2013,0.2058,0.2056,0.2046,0.1969,0.1949,0.1942,0.1871,0.1911,0.1906,0.1904,0.1902,0.176,0.1759,0,0,0,0,0,0,0.2239,0.2222,0.2113,0.2107,0.2174,0.2109,0.2098,0.2073,0.2013,0.2005,0.2045,0.2045,0.1957,0.1948,0.1939,0.1883,0.1906,0.1901,0.1899,0.1761,0.176,0.1759,0,0,0,0,0,0,0.2242,0.2229,0.2117,0.2164,0.2149,0.2106,0.2078,0.2071,0.2051,0.2004,0.1995,0.2033,0.1957,0.1945,0.1895,0.1879,0.1899,0.1895,0.1763,0.1761,0.176,0.1771,0,0,0,0,0,0,0.2246,0.223,0.2214,0.2164,0.2147,0.2076,0.2077,0.2069,0.2044,0.2042,0.199,0.1982,0.1957,0.1903,0.1891,0.1873,0.1891,0.1764,0.1762,0.176,0.1772,0.177,0.1769,0,0,0,0,0,0.2252,0.2221,0.2214,0.2201,0.2126,0.2075,0.2065,0.2038,0.2042,0.2025,0.1995,0.1983,0.1883,0.1898,0.1884,0.1865,0.1765,0.1762,0.176,0.1773,0.1771,0.1769,0,0,0,0,0,0,0.2269,0.2214,0.2205,0.2157,0.2121,0.2071,0.2049,0.2037,0.1998,0.1998,0.1965,0.1953,0.1906,0.188,0.1898,0.1819,0.1823,0.1818,0.1837,0.1835,0.1833,0.184,0.1888,0,0,0,0,0,0.2268,0.2233,0.2185,0.2147,0.213,0.2093,0.2069,0.2052,0.2013,0.1997,0.1963,0.1924,0.1884,0.1858,0.1818,0.1768,0.1756,0.1748,0.1746,0.1745,0.1741,0.1712,0.1708,0.1752,0.1752,0.1752,0,0,0.2264,0.2229,0.2209,0.215,0.212,0.2083,0.208,0.2041,0.2013,0.1991,0.1942,0.1915,0.187,0.182,0.1796,0.1797,0.1726,0.1742,0.1742,0.1738,0.1709,0.1705,0.1702,0.175,0.1751,0.1751,0,0,0.2238,0.2209,0.2174,0.2144,0.2099,0.2074,0.2066,0.2017,0.1999,0.195,0.1932,0.1898,0.1829,0.1797,0.1772,0.1734,0.1722,0.1721,0.1713,0.1685,0.1681,0.1678,0.1664,0.1659,0.1718,0.1718,0.1718,0,0.2239,0.2184,0.2157,0.2119,0.2094,0.2072,0.2036,0.2008,0.1952,0.1934,0.1936,0.1849,0.1817,0.1759,0.175,0.173,0.1719,0.1727,0.1684,0.1681,0.1677,0.1663,0.1658,0.1718,0.1718,0.1718,0.1718,0,0.2187,0.2149,0.2126,0.2074,0.2045,0.2008,0.1974,0.1948,0.1933,0.1907,0.1857,0.1817,0.1769,0.1754,0.1738,0.1693,0.1695,0.1691,0.1695,0.1674,0.166,0.1655,0.1718,0.1718,0.1718,0.1718,0,0,0.217,0.2104,0.2095,0.2071,0.202,0.1989,0.1951,0.1905,0.1883,0.1844,0.1811,0.1753,0.1749,0.172,0.17,0.1676,0.1647,0.1674,0.1673,0.1671,0.1595,0.1598,0.1593,0.1639,0.1638,0.1637,0.1599,0,0.2138,0.207,0.2044,0.1988,0.1953,0.1932,0.1898,0.1862,0.1837,0.1801,0.1773,0.1732,0.173,0.1713,0.1688,0.1656,0.1632,0.1658,0.1606,0.1605,0.1619,0.1586,0.1589,0.1555,0.1593,0.1592,0.1591,0,0.2092,0.2054,0.1995,0.1948,0.1932,0.1902,0.1858,0.1825,0.1783,0.1766,0.1734,0.1716,0.1673,0.1679,0.162,0.1639,0.1615,0.1596,0.1594,0.1588,0.1597,0.1579,0.1544,0.1539,0.1583,0.1584,0.1584,0,0.2086,0.202,0.1976,0.1956,0.19,0.1879,0.1855,0.1814,0.1788,0.1748,0.173,0.1686,0.1661,0.1626,0.1596,0.1603,0.1538,0.1543,0.1522,0.1523,0.151,0.1511,0.1471,0.1495,0.1495,0.1495,0.1495,0,0.2053,0.2017,0.1973,0.1946,0.1905,0.1875,0.1835,0.1808,0.1772,0.1738,0.1716,0.1685,0.1647,0.161,0.1585,0.1539,0.1528,0.1512,0.1506,0.1515,0.1517,0.1499,0.1501,0.1494,0.1494,0.1494,0.1495,0,0.2039,0.2008,0.1959,0.191,0.1896,0.1869,0.1826,0.1798,0.1772,0.1729,0.1717,0.1676,0.1631,0.1597,0.1539,0.1522,0.1473,0.1467,0.1488,0.1485,0.1467,0.1469,0.1413,0.1404,0.1435,0.1435,0.1435,0,0.202,0.1993,0.1941,0.1918,0.1894,0.1856,0.1829,0.1798,0.177,0.172,0.1698,0.1653,0.1614,0.1544,0.1508,0.1463,0.1455,0.1438,0.1448,0.1457,0.1454,0.1457,0.1453,0.1437,0.1437,0.1437,0.1437,0,0.199,0.1976,0.1939,0.1897,0.1866,0.1831,0.1795,0.1776,0.1738,0.1708,0.1663,0.1634,0.1575,0.1529,0.1481,0.1453,0.1438,0.1434,0.1427,0.1435,0.1449,0.1441,0.1485,0.1436,0.1436,0.1436,0.1436,0.1436,0.1973,0.1948,0.1907,0.1867,0.1837,0.1804,0.1775,0.1745,0.1708,0.1658,0.1641,0.1595,0.1552,0.1485,0.1458,0.142,0.1419,0.1409,0.1407,0.1405,0.1405,0.1455,0.1411,0.1411,0.1411,0.1411,0.1411,0,0.1942,0.1915,0.1878,0.1829,0.1797,0.1787,0.1746,0.1719,0.1679,0.1642,0.1605,0.1552,0.1508,0.1468,0.1421,0.1398,0.139,0.1387,0.1389,0.1382,0.1408,0.1419,0.1395,0.1395,0.1395,0.1395,0.1395,0.1395,0.1922,0.1878,0.1859,0.18,0.1772,0.1727,0.1705,0.1674,0.1644,0.1587,0.155,0.1525,0.1486,0.1436,0.1394,0.1383,0.1367,0.1366,0.1353,0.1379,0.1381,0.1383,0.1393,0.1363,0.1363,0.133,0.133,0.133]}]]